TimeEDT,TemperatureF,Dew PointF,Humidity,Sea Level PressureIn,VisibilityMPH,Wind Direction,Wind SpeedMPH,Gust SpeedMPH,PrecipitationIn,Events,Conditions,WindDirDegrees,DateUTC
12:54 AM,51.1,48.0,89,30.06,10.0,Calm,Calm,-,N/A,,Clear,0,2013-09-30 04:54:00
1:54 AM,51.1,48.0,89,30.07,10.0,Calm,Calm,-,N/A,,Clear,0,2013-09-30 05:54:00
2:54 AM,50.0,46.9,89,30.07,10.0,Calm,Calm,-,N/A,,Clear,0,2013-09-30 06:54:00
3:54 AM,50.0,48.0,93,30.06,10.0,Calm,Calm,-,N/A,,Clear,0,2013-09-30 07:54:00
4:54 AM,48.9,46.0,90,30.06,10.0,Calm,Calm,-,0.01,,Clear,0,2013-09-30 08:54:00
5:54 AM,48.0,45.0,89,30.06,10.0,Calm,Calm,-,N/A,,Clear,0,2013-09-30 09:54:00
6:54 AM,48.9,46.0,90,30.09,10.0,Calm,Calm,-,N/A,,Clear,0,2013-09-30 10:54:00
7:54 AM,50.0,46.9,89,30.10,10.0,Calm,Calm,-,N/A,,Clear,0,2013-09-30 11:54:00
8:54 AM,55.9,51.1,84,30.11,10.0,Calm,Calm,-,N/A,,Clear,0,2013-09-30 12:54:00
9:54 AM,60.1,54.0,80,30.11,10.0,Calm,Calm,-,N/A,,Clear,0,2013-09-30 13:54:00
10:54 AM,64.9,55.9,73,30.10,10.0,Calm,Calm,-,N/A,,Clear,0,2013-09-30 14:54:00
11:54 AM,70.0,54.0,57,30.09,10.0,Calm,Calm,-,N/A,,Clear,0,2013-09-30 15:54:00
12:54 PM,72.0,53.1,51,30.07,10.0,East,3.5,-,N/A,,Mostly Cloudy,80,2013-09-30 16:54:00
1:54 PM,73.0,52.0,48,30.05,10.0,SW,4.6,-,N/A,,Mostly Cloudy,230,2013-09-30 17:54:00
2:54 PM,73.9,50.0,43,30.02,10.0,Calm,Calm,-,N/A,,Partly Cloudy,0,2013-09-30 18:54:00
3:54 PM,73.0,51.1,46,30.01,10.0,Calm,Calm,-,N/A,,Overcast,0,2013-09-30 19:54:00
4:54 PM,72.0,52.0,49,30.01,10.0,Calm,Calm,-,N/A,,Partly Cloudy,0,2013-09-30 20:54:00
5:54 PM,73.0,51.1,46,30.02,10.0,Calm,Calm,-,N/A,,Clear,0,2013-09-30 21:54:00
6:54 PM,66.9,55.9,68,30.03,10.0,Calm,Calm,-,N/A,,Clear,0,2013-09-30 22:54:00
7:54 PM,62.1,55.9,80,30.04,10.0,Calm,Calm,-,N/A,,Clear,0,2013-09-30 23:54:00
8:54 PM,61.0,55.0,81,30.06,10.0,Calm,Calm,-,N/A,,Clear,0,2013-10-01 00:54:00
9:54 PM,57.9,54.0,87,30.07,10.0,Calm,Calm,-,N/A,,Clear,0,2013-10-01 01:54:00
10:54 PM,55.9,53.1,90,30.07,10.0,Calm,Calm,-,N/A,,Clear,0,2013-10-01 02:54:00
11:54 PM,55.9,52.0,87,30.07,7.0,Calm,Calm,-,N/A,,Clear,0,2013-10-01 03:54:00